Weather in Molodenki

Russia / Tula Oblast     53°43′45″N   38°54′05″E
temp.,
°C
wind,
m/s
gust,
m/s
humid.,
%
clouds,
%
prec.,
mm/h
press.,
hPa
HPBL,
m
13 may, thu
thu1300:00+6ese349674 0.0 102074
03:00+6e379563 0.0 1019139
06:00+7e5119476 0.0 1019265
09:00+12ese71280100 0.0 1017501
12:00+14se587459 0.0 1017651
15:00+16s467093 0.6 10161106
18:00+15s488066 1.7 1015488
21:00+12s228819 2.6 101620
14 may, fri
fri1400:00+10ssw22912 0.0 101616
03:00+10se2291100 0.0 101719
06:00+11se2492100 0.0 101789
09:00+17se4680100 0.1 1017425
12:00+21se6967100 0.0 10161210
15:00+22se61166100 0.1 10141576
18:00+20sse71475100 2.0 1013624
21:00+17se61687100 2.2 1011364
15 may, sat
sat1500:00+15sse2291100 0.0 101117
03:00+15sse379440 0.6 1010137
06:00+16sse3794100 0.0 1010176
09:00+18s478998 2.4 1010354
12:00+21ssw6869100 3.6 1011954
15:00+21ssw710621 3.6 10111678
18:00+19sw610735 0.3 1012799
21:00+15ssw38899 0.3 1014167
16 may, sun
sun1600:00+13sw34935 0.0 101469
03:00+12ssw229210 0.0 101523
06:00+13s239098 0.0 101693
09:00+18ssw34715 0.0 1016448
12:00+21ssw35591 0.3 10161418
15:00+22sw35538 0.8 10151964
18:00+21wsw116399 0.0 101451
21:00+17ne227392 0.0 101512
17 may, mon
mon1700:00+15ene338354 0.0 101539
03:00+15ene478244 0.0 1015125
06:00+15ene4108863 0.0 1015232
09:00+20e697543 0.0 1014448
12:00+24se685890 0.0 1013798
15:00+25se69545 0.0 10121313
18:00+23se510655 0.0 1012379
21:00+18ese514835 0.0 1012265